Ashland, WI

12:35 PM CST on November 17, 2017 (GMT -0600)
Kennedy Memorial

Weather History for KASX - August, 2013

Change the Weather History Date:

Wednesday, August 7, 2013

  Actual Average Record
Temperature  
Mean Temperature 63 °F -  
Max Temperature 73 °F 80 °F 94 °F (1949)
Min Temperature 51 °F 54 °F 42 °F (1972)
Degree Days  
Heating Degree Days 2    
Growing Degree Days 13 (Base 50)    
Moisture  
Dew Point 53 °F    
Average Humidity 71    
Maximum Humidity 96    
Minimum Humidity 44    
Precipitation  
Precipitation 0.00 in - - ()
Sea Level Pressure  
Sea Level Pressure 29.90 in    
Wind  
Wind Speed 5 mph (NW)    
Max Wind Speed 12 mph    
Max Gust Speed 18 mph    
Visibility 10 miles    
Events      
Averages and records for this station are not official NWS values.
T = Trace of Precipitation, MM = Missing Value Source: NWS Daily Summary

Daily Weather History Graph

Daily Weather History Graph

Search for Another Location

Airport or City:

Trip Planner

Search our weather history database for the weather conditions in past years. The results will help you decide how hot, cold, wet, or windy it might be!

Date:

Astronomy

Aug. 07, 2013 Rise Set
Actual Time 5:52 AM CDT 8:25 PM CDT
Civil Twilight 5:18 AM CDT 8:59 PM CDT
Nautical Twilight 4:34 AM CDT 9:42 PM CDT
Astronomical Twilight 3:45 AM CDT 10:31 PM CDT
Moon 6:47 AM CDT (8/7) 8:24 PM CDT (8/7)
Length of Visible Light 15h 41m
Length of Day
14h 33m
New Moon, 1% of the Moon is Illuminated
Aug 7
New Moon
Aug 14
First Quarter
Aug 20
Full
Aug 28
Last Quarter
Sep 5
New

Hourly Weather History & Observations

Time (CDT) Temp. Dew Point Humidity Pressure Visibility Wind Dir Wind Speed Gust Speed Precip Events Conditions
12:53 AM 62.1 °F 59.0 °F 90% 29.75 in 10.0 mi NNW 5.8 mph - N/A   Mostly Cloudy
1:53 AM 62.1 °F 59.0 °F 90% 29.77 in 10.0 mi Calm Calm - N/A   Overcast
2:53 AM 60.1 °F 59.0 °F 96% 29.78 in 10.0 mi Calm Calm - N/A   Overcast
3:53 AM 61.0 °F 59.0 °F 93% 29.78 in 10.0 mi Calm Calm - N/A   Overcast
4:53 AM 61.0 °F 59.0 °F 93% 29.81 in 10.0 mi WNW 4.6 mph - N/A   Overcast
5:53 AM 61.0 °F 59.0 °F 93% 29.82 in 10.0 mi Calm Calm - N/A   Overcast
6:51 AM 62.6 °F 59.0 °F 88% 29.84 in 10.0 mi NNW 5.8 mph - N/A   Overcast
6:53 AM 62.1 °F 59.0 °F 90% 29.84 in 10.0 mi NNW 6.9 mph - N/A   Overcast
7:19 AM 62.6 °F 57.2 °F 82% 29.85 in 10.0 mi NNW 8.1 mph - N/A   Overcast
7:53 AM 62.1 °F 57.0 °F 84% 29.87 in 10.0 mi NNW 6.9 mph - N/A   Mostly Cloudy
8:53 AM 62.1 °F 54.0 °F 75% 29.89 in 10.0 mi North 11.5 mph - N/A   Scattered Clouds
9:53 AM 66.9 °F 54.0 °F 63% 29.91 in 10.0 mi NNE 8.1 mph - N/A   Clear
10:53 AM 68.0 °F 51.1 °F 55% 29.93 in 10.0 mi North 10.4 mph - N/A   Clear
11:53 AM 70.0 °F 51.1 °F 51% 29.95 in 10.0 mi NNE 4.6 mph - N/A   Clear
12:53 PM 71.1 °F 51.1 °F 49% 29.95 in 10.0 mi NNE 4.6 mph - N/A   Clear
1:53 PM 71.1 °F 48.0 °F 44% 29.96 in 10.0 mi Variable 5.8 mph - N/A   Clear
2:53 PM 71.1 °F 50.0 °F 47% 29.96 in 10.0 mi Variable 4.6 mph - N/A   Mostly Cloudy
3:53 PM 72.0 °F 48.9 °F 44% 29.95 in 10.0 mi WNW 11.5 mph 18.4 mph N/A   Clear
4:53 PM 72.0 °F 48.9 °F 44% 29.96 in 10.0 mi NW 8.1 mph - N/A   Clear
5:53 PM 71.1 °F 48.9 °F 45% 29.96 in 10.0 mi NW 6.9 mph - N/A   Clear
6:53 PM 69.1 °F 48.9 °F 49% 29.96 in 10.0 mi WNW 6.9 mph - N/A   Clear
7:53 PM 64.9 °F 50.0 °F 58% 29.97 in 10.0 mi NW 4.6 mph - N/A   Clear
8:53 PM 57.0 °F 51.1 °F 81% 29.99 in 10.0 mi WNW 3.5 mph - N/A   Clear
9:53 PM 54.0 °F 50.0 °F 86% 30.01 in 10.0 mi SW 3.5 mph - N/A   Clear
10:53 PM 55.9 °F 48.9 °F 77% 30.02 in 10.0 mi West 4.6 mph - N/A   Clear
11:53 PM 51.1 °F 48.0 °F 89% 30.03 in 10.0 mi WSW 3.5 mph - N/A   Clear